Flag for Switzerland Weather past 2 weeks in Liestal, Basel-Land, Switzerland

Now
39 °F

Partly sunny.


Feels Like: 37 °F
Forecast: 37 / 48 °F
Wind: 3 mph from Southwest

Location: Bale-Mulhouse

Current Time: Mar 1, 2015 at 10:01:31 AM

Latest Report: Mar 1, 2015 at 9:30 AM


Visibility: N/A

Pressure: 29.89 "Hg

Humidity: 93%

Dew point: 37 °F

Location of LiestalLocation

Historic Weather in Liestal — Graph

°F

Liestal temperature yesterday

Maximum temperature yesterday: 45 °F (at 2:00 PM)
Minimum temperature yesterday: 34 °F (at 8:00 AM)
Average temperature yesterday: 38 °F

Past Weeks' High & Low Weather Summary

 TemperatureHumidityPressure
High61 °F (Feb 20, 4:00 PM)100% (Feb 15, 8:00 AM)30.69 "Hg (Feb 15, 8:00 AM)
Low28 °F (Feb 19, 4:30 AM)18% (Feb 20, 5:00 PM)29.56 "Hg (Feb 21, 6:30 AM)
Average38 °F81%30.03 "Hg
* Reported Feb 14 9:00 AM — Mar 1 9:00 AM, Liestal, Weather by CustomWeather, © 2015

Note: Actual official high and low records may vary slightly from our data, if they occured in-between our weather recording intervals... More about our weather records

Advertising

Liestal weather history for previous 24 hours

 ConditionsComfort  
Time TempWeatherWind HumidityBarometerVisibility
9:00 AM
Sun, Mar 1
39 °FPartly sunny.3 mph93%29.89 "HgN/A
8:30 AM39 °FPartly sunny.3 mph87%29.89 "HgN/A
8:00 AM37 °FPartly sunny.6 mph93%29.89 "HgN/A
7:30 AM37 °FLight rain. Partly sunny.8 mph93%29.86 "HgN/A
7:00 AM36 °FLight rain. Mostly cloudy.9 mph93%29.89 "Hg4 mi
6:30 AM36 °FLight rain. Overcast.8 mph93%29.89 "Hg3 mi
6:00 AM36 °FLight rain. Overcast.7 mph93%29.92 "Hg4 mi
5:30 AM36 °FLight rain. Overcast.6 mph87%29.92 "Hg4 mi
5:00 AM36 °FLight rain. Mostly cloudy.3 mph87%29.92 "Hg6 mi
4:30 AM36 °FLight rain. Mostly cloudy.8 mph87%29.92 "HgN/A
4:00 AM36 °FMostly cloudy.9 mph87%29.92 "HgN/A
3:30 AM36 °FPassing clouds.7 mph87%29.95 "HgN/A
3:00 AM34 °FClear.6 mph93%29.95 "HgN/A
2:30 AM34 °FClear.5 mph93%29.95 "HgN/A
2:00 AM34 °FClear.5 mph87%29.98 "HgN/A
1:30 AM34 °FClear.6 mph93%29.98 "Hg6 mi
1:00 AM34 °FClear.6 mph93%29.98 "HgN/A
12:30 AM34 °FClear.6 mph87%29.98 "HgN/A
12:00 AM34 °FPassing clouds.5 mph87%30.01 "HgN/A
11:30 PM
Sat, Feb 28
34 °FPassing clouds.6 mph87%30.01 "HgN/A
11:00 PM34 °FClear.5 mph87%30.04 "Hg10 mi
10:00 PM34 °FClear.7 mph87%30.04 "Hg10 mi
9:30 PM34 °FClear.5 mph87%30.07 "Hg10 mi
9:00 PM34 °FClear.5 mph87%30.07 "Hg10 mi
8:30 PM36 °FClear.3 mph81%30.07 "Hg10 mi
8:00 PM37 °FClear.3 mph75%30.07 "Hg10 mi
7:30 PM37 °FPassing clouds.3 mph75%30.07 "HgN/A
7:00 PM37 °FPassing clouds.5 mph75%30.07 "HgN/A
6:30 PM39 °FPassing clouds.6 mph65%30.07 "HgN/A
6:00 PM41 °FPassing clouds.3 mph66%30.07 "HgN/A
5:30 PM43 °FPassing clouds.8 mph61%30.07 "HgN/A
5:00 PM45 °FScattered clouds.7 mph57%30.07 "HgN/A
4:30 PM45 °FScattered clouds.7 mph61%30.09 "HgN/A
4:00 PM45 °FBroken clouds.5 mph57%30.09 "HgN/A
3:30 PM45 °FPartly sunny.6 mph57%30.09 "HgN/A
3:00 PM45 °FPartly sunny.6 mph61%30.09 "HgN/A
2:30 PM45 °FPartly sunny.3 mph61%30.09 "HgN/A
2:00 PM45 °FPartly sunny.2 mph61%30.12 "HgN/A
1:30 PM43 °FPartly sunny.2 mph71%30.12 "HgN/A
1:00 PM43 °FPartly sunny.2 mph71%30.15 "HgN/A
12:30 PM43 °FPartly sunny.2 mph71%30.15 "HgN/A
12:00 PM43 °FPartly sunny.2 mph71%30.15 "HgN/A
11:30 AM41 °FPartly sunny.2 mph81%30.15 "HgN/A
11:00 AM39 °FPartly sunny.2 mph87%30.15 "HgN/A
10:30 AM37 °FPartly sunny.2 mph93%30.18 "HgN/A
10:00 AM37 °FBroken clouds.2 mph93%30.18 "Hg4 mi
Weather by CustomWeather, © 2015

See weather overviewHow to use our weather pages